| time (UTC) | temp F | wind direction | speed MPH | gust MPH | rain 1hr in | rain 24hr in | rain mn in | humidity % | barometer mb |
| 20260902143515 | 66 | 97 | 3.0 | 4.0 | 0.00 | 0.00 | 0.00 | 85 | 1019.6 |
| 20260902143017 | 66 | 116 | 1.0 | 4.0 | 0.00 | 0.00 | 0.00 | 84 | 1019.5 |
| 20260902142516 | 66 | 88 | 2.0 | 6.0 | 0.00 | 0.00 | 0.00 | 84 | 1019.5 |
| 20260902142016 | 66 | 149 | 2.0 | 9.0 | 0.00 | 0.00 | 0.00 | 85 | 1019.7 |
| 20260902141516 | 66 | 143 | 4.0 | 9.0 | 0.00 | 0.00 | 0.00 | 85 | 1019.9 |
| 20260902141015 | 66 | 143 | 3.0 | 8.0 | 0.00 | 0.00 | 0.00 | 84 | 1020.0 |
| 20260902140516 | 66 | 152 | 2.0 | 8.0 | 0.00 | 0.00 | 0.00 | 83 | 1019.9 |
| 20260902140016 | 66 | 162 | 3.0 | 7.0 | 0.00 | 0.00 | 0.00 | 83 | 1020.0 |
| 20260902135516 | 66 | 164 | 2.0 | 5.0 | 0.00 | 0.36 | 0.00 | 82 | 1019.9 |
| 20260902135016 | 66 | 100 | 3.0 | 5.0 | 0.00 | 0.36 | 0.00 | 82 | 1020.0 |
| 20260902134016 | 66 | 113 | 3.0 | 5.0 | 0.00 | 0.36 | 0.00 | 81 | 1019.7 |
| 20260902133516 | 66 | 179 | 1.0 | 7.0 | 0.00 | 0.36 | 0.00 | 81 | 1019.5 |
| 20260902133016 | 66 | 100 | 3.0 | 7.0 | 0.00 | 0.36 | 0.00 | 81 | 1019.5 |
| 20260902132527 | 66 | 95 | 4.0 | 6.0 | 0.00 | 0.36 | 0.00 | 80 | 1019.5 |
| 20260902132016 | 66 | 154 | 2.0 | 6.0 | 0.00 | 0.36 | 0.00 | 80 | 1019.5 |
| 20260902131517 | 66 | 146 | 3.0 | 6.0 | 0.00 | 0.36 | 0.00 | 80 | 1019.3 |
| 20260902131015 | 66 | 132 | 2.0 | 4.0 | 0.00 | 0.36 | 0.00 | 80 | 1019.3 |
| 20260902130516 | 66 | 98 | 2.0 | 4.0 | 0.00 | 0.36 | 0.00 | 79 | 1019.2 |
| 20260902130016 | 66 | 142 | 2.0 | 3.0 | 0.00 | 0.36 | 0.00 | 79 | 1019.2 |
| 20260902125517 | 66 | 84 | 1.0 | 3.0 | 0.00 | 0.36 | 0.00 | 79 | 1019.1 |
| 20260902125016 | 66 | 95 | 2.0 | 3.0 | 0.00 | 0.36 | 0.00 | 79 | 1019.0 |
| 20260902124516 | 66 | 107 | 1.0 | 5.0 | 0.00 | 0.36 | 0.00 | 79 | 1019.1 |
| 20260902124016 | 66 | 94 | 2.0 | 6.0 | 0.00 | 0.36 | 0.00 | 80 | 1018.9 |
| 20260902123516 | 66 | 121 | 3.0 | 6.0 | 0.00 | 0.36 | 0.00 | 80 | 1018.7 |
| 20260902123027 | 66 | 96 | 2.0 | 4.0 | 0.00 | 0.36 | 0.00 | 80 | 1018.7 |
| 20260902122516 | 66 | 91 | 2.0 | 3.0 | 0.00 | 0.36 | 0.00 | 80 | 1018.8 |
| 20260902122016 | 66 | 91 | 1.0 | 3.0 | 0.00 | 0.36 | 0.00 | 80 | 1018.7 |
| 20260902121527 | 66 | 109 | 0.0 | 3.0 | 0.00 | 0.36 | 0.00 | 80 | 1018.8 |
| 20260902121016 | 66 | 85 | 0.0 | 1.0 | 0.00 | 0.36 | 0.00 | 80 | 1018.7 |
| 20260902120528 | 66 | 85 | 1.0 | 1.0 | 0.00 | 0.36 | 0.00 | 80 | 1018.7 |
| 20260902120016 | 66 | 79 | 0.0 | 2.0 | 0.00 | 0.36 | 0.00 | 80 | 1018.6 |
| 20260902115516 | 66 | 84 | 1.0 | 3.0 | 0.00 | 0.36 | 0.00 | 80 | 1018.6 |
| 20260902115016 | 66 | 111 | 2.0 | 3.0 | 0.00 | 0.36 | 0.00 | 80 | 1018.6 |
| 20260902114516 | 66 | 105 | 1.0 | 4.0 | 0.00 | 0.36 | 0.00 | 81 | 1018.7 |
| 20260902114016 | 66 | 81 | 1.0 | 4.0 | 0.00 | 0.36 | 0.00 | 81 | 1018.7 |
| 20260902113516 | 66 | 122 | 2.0 | 4.0 | 0.00 | 0.36 | 0.00 | 81 | 1018.6 |
| 20260902113016 | 66 | 96 | 1.0 | 4.0 | 0.00 | 0.36 | 0.00 | 81 | 1018.6 |
| 20260902112527 | 66 | 70 | 1.0 | 4.0 | 0.00 | 0.36 | 0.00 | 81 | 1018.7 |
| 20260902112016 | 66 | 115 | 2.0 | 5.0 | 0.00 | 0.36 | 0.00 | 81 | 1018.7 |
| 20260902111516 | 66 | 115 | 3.0 | 5.0 | 0.00 | 0.36 | 0.00 | 81 | 1018.8 |
| 20260902111017 | 66 | 106 | 2.0 | 5.0 | 0.00 | 0.36 | 0.00 | 81 | 1018.7 |
| 20260902110527 | 67 | 59 | 3.0 | 5.0 | 0.00 | 0.36 | 0.00 | 81 | 1018.6 |
| 20260902110016 | 67 | 78 | 3.0 | 5.0 | 0.00 | 0.36 | 0.00 | 81 | 1018.6 |
| 20260902105528 | 67 | 91 | 1.0 | 4.0 | 0.00 | 0.36 | 0.00 | 81 | 1018.6 |
| 20260902105016 | 67 | 7 | 2.0 | 4.0 | 0.00 | 0.36 | 0.00 | 81 | 1018.5 |
| 20260902104518 | 67 | 46 | 2.0 | 4.0 | 0.00 | 0.36 | 0.00 | 81 | 1018.5 |
| 20260902104016 | 67 | 69 | 3.0 | 4.0 | 0.00 | 0.36 | 0.00 | 82 | 1018.5 |
| 20260902103539 | 67 | 72 | 1.0 | 4.0 | 0.00 | 0.36 | 0.00 | 82 | 1018.5 |
| 20260902103017 | 68 | 79 | 1.0 | 5.0 | 0.00 | 0.36 | 0.00 | 82 | 1018.5 |
| 20260902102516 | 68 | 76 | 1.0 | 5.0 | 0.00 | 0.36 | 0.00 | 82 | 1018.5 |
| 20260902102016 | 68 | 51 | 2.0 | 3.0 | 0.00 | 0.36 | 0.00 | 82 | 1018.5 |
| 20260902101528 | 68 | 8 | 1.0 | 2.0 | 0.00 | 0.36 | 0.00 | 82 | 1018.5 |
| 20260902101017 | 68 | 61 | 1.0 | 2.0 | 0.00 | 0.36 | 0.00 | 82 | 1018.5 |
| 20260902100517 | 68 | 96 | 0.0 | 3.0 | 0.00 | 0.36 | 0.00 | 82 | 1018.6 |
| 20260902100017 | 68 | 96 | 1.0 | 6.0 | 0.00 | 0.36 | 0.00 | 82 | 1018.3 |
| 20260902095517 | 68 | 55 | 3.0 | 6.0 | 0.00 | 0.37 | 0.00 | 82 | 1018.3 |
| 20260902095028 | 69 | 61 | 1.0 | 3.0 | 0.00 | 0.37 | 0.00 | 82 | 1018.3 |
| 20260902094516 | 69 | 75 | 0.0 | 1.0 | 0.00 | 0.37 | 0.00 | 82 | 1018.2 |
| 20260902094017 | 69 | 75 | 0.0 | 1.0 | 0.00 | 0.37 | 0.00 | 82 | 1018.2 |
| 20260902093517 | 69 | 75 | 0.0 | 1.0 | 0.00 | 0.37 | 0.00 | 83 | 1018.3 |
| 20260902093017 | 69 | 75 | 0.0 | 3.0 | 0.00 | 0.37 | 0.00 | 83 | 1018.3 |
| 20260902092517 | 69 | 77 | 1.0 | 3.0 | 0.00 | 0.37 | 0.00 | 83 | 1018.2 |
| 20260902092016 | 69 | 86 | 2.0 | 2.0 | 0.00 | 0.37 | 0.00 | 83 | 1018.2 |
| 20260902091528 | 69 | 188 | 0.0 | 0.0 | 0.00 | 0.37 | 0.00 | 83 | 1018.2 |
| 20260902091017 | 69 | 191 | 0.0 | 1.0 | 0.00 | 0.37 | 0.00 | 83 | 1018.2 |
| 20260902090517 | 69 | 191 | 0.0 | 1.0 | 0.00 | 0.37 | 0.00 | 83 | 1018.3 |
| 20260902090017 | 69 | 191 | 0.0 | 2.0 | 0.00 | 0.37 | 0.00 | 83 | 1018.2 |
| 20260902085517 | 69 | 241 | 0.0 | 2.0 | 0.00 | 0.37 | 0.00 | 83 | 1018.1 |
| 20260902085017 | 69 | 243 | 1.0 | 2.0 | 0.00 | 0.37 | 0.00 | 83 | 1018.1 |
| 20260902084517 | 69 | 204 | 0.0 | 3.0 | 0.00 | 0.37 | 0.00 | 83 | 1018.1 |
| 20260902084017 | 69 | 181 | 1.0 | 3.0 | 0.00 | 0.37 | 0.00 | 83 | 1018.0 |
| 20260902083517 | 69 | 150 | 0.0 | 1.0 | 0.00 | 0.37 | 0.00 | 83 | 1018.0 |
| 20260902083017 | 69 | 233 | 0.0 | 1.0 | 0.00 | 0.37 | 0.00 | 84 | 1017.9 |
| 20260902082517 | 69 | 233 | 0.0 | 1.0 | 0.00 | 0.37 | 0.00 | 84 | 1017.8 |
| 20260902082017 | 69 | 233 | 0.0 | 0.0 | 0.00 | 0.37 | 0.00 | 84 | 1017.9 |
| 20260902081517 | 69 | 233 | 0.0 | 0.0 | 0.00 | 0.37 | 0.00 | 84 | 1017.9 |
| 20260902081017 | 69 | 233 | 0.0 | 1.0 | 0.00 | 0.37 | 0.00 | 84 | 1017.8 |
| 20260902080517 | 69 | 233 | 0.0 | 1.0 | 0.00 | 0.37 | 0.00 | 84 | 1017.8 |
| 20260902080017 | 69 | 233 | 0.0 | 1.0 | 0.00 | 0.37 | 0.00 | 84 | 1017.8 |
| 20260902075517 | 69 | 233 | 1.0 | 2.0 | 0.00 | 0.37 | 0.00 | 84 | 1017.9 |
| 20260902075017 | 69 | 211 | 1.0 | 4.0 | 0.00 | 0.37 | 0.00 | 84 | 1017.9 |
| 20260902074517 | 69 | 149 | 1.0 | 4.0 | 0.00 | 0.37 | 0.00 | 84 | 1017.9 |
| 20260902074028 | 69 | 271 | 1.0 | 5.0 | 0.00 | 0.37 | 0.00 | 84 | 1017.9 |
| 20260902073517 | 69 | 233 | 1.0 | 2.0 | 0.00 | 0.37 | 0.00 | 84 | 1017.8 |
| 20260902073018 | 69 | 213 | 1.0 | 2.0 | 0.00 | 0.37 | 0.00 | 85 | 1017.9 |
| 20260902072528 | 70 | 245 | 0.0 | 1.0 | 0.00 | 0.37 | 0.00 | 85 | 1017.9 |
| 20260902072020 | 70 | 143 | 0.0 | 1.0 | 0.00 | 0.37 | 0.00 | 85 | 1017.9 |
| 20260902071519 | 70 | 136 | 0.0 | 1.0 | 0.00 | 0.37 | 0.00 | 85 | 1017.9 |
| 20260902071030 | 70 | 136 | 0.0 | 1.0 | 0.00 | 0.37 | 0.00 | 85 | 1017.9 |
| 20260902070529 | 70 | 136 | 0.0 | 1.0 | 0.00 | 0.37 | 0.00 | 85 | 1017.9 |
| 20260902070019 | 70 | 136 | 0.0 | 2.0 | 0.00 | 0.37 | 0.00 | 85 | 1017.8 |
| 20260902065519 | 70 | 136 | 0.0 | 2.0 | 0.00 | 0.37 | 0.00 | 85 | 1017.8 |
| 20260902065018 | 70 | 159 | 0.0 | 2.0 | 0.00 | 0.37 | 0.00 | 85 | 1017.8 |
| 20260902064518 | 69 | 161 | 1.0 | 2.0 | 0.00 | 0.37 | 0.00 | 85 | 1017.8 |
| 20260902064030 | 69 | 157 | 1.0 | 4.0 | 0.00 | 0.37 | 0.00 | 85 | 1017.8 |
| 20260902063530 | 69 | 165 | 2.0 | 4.0 | 0.00 | 0.37 | 0.00 | 85 | 1017.9 |
| 20260902063029 | 69 | 110 | 1.0 | 2.0 | 0.00 | 0.37 | 0.00 | 86 | 1017.9 |
| 20260902062518 | 69 | 138 | 0.0 | 2.0 | 0.00 | 0.37 | 0.00 | 86 | 1017.9 |
| 20260902062018 | 69 | 215 | 0.0 | 2.0 | 0.00 | 0.37 | 0.00 | 86 | 1017.9 |
| 20260902061531 | 69 | 232 | 0.0 | 3.0 | 0.00 | 0.37 | 0.00 | 86 | 1017.9 |
| 20260902061019 | 69 | 115 | 2.0 | 4.0 | 0.00 | 0.37 | 0.00 | 86 | 1017.9 |
| 20260902060518 | 69 | 77 | 1.0 | 2.0 | 0.00 | 0.37 | 0.00 | 86 | 1017.8 |
| 20260902060019 | 69 | 240 | 1.0 | 1.0 | 0.00 | 0.37 | 0.00 | 86 | 1017.9 |
| 20260902055519 | 69 | 240 | 0.0 | 1.0 | 0.00 | 0.37 | 0.00 | 86 | 1018.0 |
| 20260902055019 | 69 | 240 | 0.0 | 3.0 | 0.00 | 0.37 | 0.00 | 86 | 1018.1 |
| 20260902054530 | 69 | 235 | 2.0 | 3.0 | 0.00 | 0.37 | 0.00 | 86 | 1018.0 |
| 20260902054019 | 69 | 231 | 2.0 | 3.0 | 0.00 | 0.37 | 0.00 | 86 | 1018.1 |
| 20260902053519 | 69 | 56 | 0.0 | 1.0 | 0.00 | 0.37 | 0.00 | 87 | 1018.0 |
| 20260902053019 | 69 | 56 | 0.0 | 2.0 | 0.00 | 0.37 | 0.00 | 87 | 1018.0 |
| 20260902052519 | 69 | 56 | 0.0 | 3.0 | 0.00 | 0.37 | 0.00 | 87 | 1018.0 |
| 20260902052020 | 69 | 39 | 1.0 | 4.0 | 0.00 | 0.37 | 0.00 | 87 | 1017.9 |
| 20260902051520 | 69 | 53 | 2.0 | 4.0 | 0.00 | 0.37 | 0.00 | 87 | 1018.0 |
| 20260902051030 | 69 | 240 | 0.0 | 1.0 | 0.00 | 0.37 | 0.00 | 87 | 1018.2 |
| 20260902050519 | 69 | 240 | 0.0 | 1.0 | 0.00 | 0.37 | 0.00 | 87 | 1018.1 |
| 20260902050041 | 69 | 240 | 0.0 | 1.0 | 0.00 | 0.37 | 0.00 | 87 | 1018.1 |
| 20260902045519 | 69 | 240 | 0.0 | 1.0 | 0.00 | 0.37 | 0.00 | 87 | 1018.1 |
| 20260902045019 | 69 | 240 | 0.0 | 1.0 | 0.00 | 0.37 | 0.00 | 87 | 1018.1 |
| 20260902044519 | 69 | 25 | 0.0 | 1.0 | 0.00 | 0.37 | 0.00 | 88 | 1018.1 |
| 20260902044020 | 69 | 25 | 0.0 | 1.0 | 0.00 | 0.37 | 0.00 | 88 | 1017.9 |
| 20260902043519 | 69 | 25 | 0.0 | 1.0 | 0.00 | 0.37 | 0.00 | 88 | 1017.9 |
| 20260902043020 | 69 | 25 | 0.0 | 1.0 | 0.00 | 0.37 | 0.00 | 88 | 1017.9 |
| 20260902042530 | 69 | 25 | 0.0 | 1.0 | 0.00 | 0.37 | 0.00 | 88 | 1017.9 |
| 20260902042019 | 68 | 25 | 0.0 | 2.0 | 0.00 | 0.37 | 0.00 | 88 | 1017.9 |
| 20260902041520 | 68 | 25 | 0.0 | 2.0 | 0.00 | 0.37 | 0.00 | 88 | 1017.8 |
| 20260902041019 | 68 | 25 | 0.0 | 2.0 | 0.00 | 0.37 | 0.00 | 88 | 1017.7 |
| 20260902040520 | 68 | 29 | 1.0 | 2.0 | 0.00 | 0.37 | 0.00 | 89 | 1017.6 |
| 20260902040019 | 68 | 248 | 0.0 | 1.0 | 0.00 | 0.37 | 0.00 | 89 | 1017.6 |
| 20260902035519 | 68 | 248 | 0.0 | 1.0 | 0.00 | 0.39 | 0.37 | 89 | 1017.4 |
| 20260902035019 | 68 | 248 | 0.0 | 1.0 | 0.00 | 0.39 | 0.37 | 89 | 1017.3 |
| 20260902034519 | 67 | 248 | 0.0 | 0.0 | 0.00 | 0.39 | 0.37 | 89 | 1017.3 |
| 20260902034042 | 67 | 248 | 0.0 | 2.0 | 0.00 | 0.39 | 0.37 | 89 | 1017.2 |
| 20260902033519 | 67 | 248 | 0.0 | 2.0 | 0.00 | 0.39 | 0.37 | 89 | 1017.4 |
| 20260902033020 | 67 | 235 | 1.0 | 2.0 | 0.00 | 0.39 | 0.37 | 89 | 1017.3 |
| 20260902032519 | 67 | 247 | 0.0 | 1.0 | 0.00 | 0.39 | 0.37 | 90 | 1017.3 |
| 20260902032021 | 67 | 236 | 0.0 | 1.0 | 0.00 | 0.39 | 0.37 | 90 | 1017.2 |
| 20260902031521 | 67 | 236 | 0.0 | 1.0 | 0.00 | 0.39 | 0.37 | 90 | 1017.2 |
| 20260902031030 | 67 | 236 | 0.0 | 1.0 | 0.00 | 0.39 | 0.37 | 90 | 1017.0 |
| 20260902030519 | 67 | 269 | 0.0 | 1.0 | 0.00 | 0.39 | 0.37 | 91 | 1016.8 |
| 20260902030019 | 68 | 269 | 1.0 | 1.0 | 0.00 | 0.39 | 0.37 | 91 | 1016.7 |
| 20260902025512 | 68 | 269 | 0.0 | 1.0 | 0.00 | 0.40 | 0.37 | 91 | 1016.6 |
| 20260902025011 | 68 | 269 | 0.0 | 0.0 | 0.00 | 0.40 | 0.37 | 91 | 1016.4 |
| 20260902024511 | 68 | 269 | 0.0 | 0.0 | 0.00 | 0.40 | 0.37 | 91 | 1016.1 |
| 20260902024012 | 68 | 269 | 0.0 | 1.0 | 0.00 | 0.40 | 0.37 | 91 | 1016.2 |
| 20260902023534 | 69 | 269 | 0.0 | 1.0 | 0.00 | 0.40 | 0.37 | 91 | 1016.1 |
| 20260902023012 | 69 | 269 | 0.0 | 1.0 | 0.00 | 0.40 | 0.37 | 91 | 1016.3 |
| 20260902022512 | 69 | 269 | 0.0 | 1.0 | 0.00 | 0.40 | 0.37 | 91 | 1016.3 |
| 20260902022012 | 69 | 269 | 0.0 | 0.0 | 0.00 | 0.40 | 0.37 | 91 | 1016.4 |
| 20260902021512 | 69 | 269 | 0.0 | 2.0 | 0.00 | 0.40 | 0.37 | 91 | 1016.4 |
| 20260902021012 | 69 | 269 | 1.0 | 2.0 | 0.00 | 0.40 | 0.37 | 91 | 1016.4 |
| 20260902020511 | 69 | 272 | 2.0 | 2.0 | 0.00 | 0.40 | 0.37 | 91 | 1016.3 |
| 20260902020011 | 69 | 233 | 1.0 | 1.0 | 0.00 | 0.40 | 0.37 | 91 | 1016.4 |
| 20260902015512 | 69 | 233 | 0.0 | 1.0 | 0.00 | 0.41 | 0.37 | 91 | 1016.3 |
| 20260902015012 | 70 | 233 | 1.0 | 1.0 | 0.00 | 0.41 | 0.37 | 91 | 1016.1 |
| 20260902014512 | 70 | 266 | 0.0 | 0.0 | 0.00 | 0.41 | 0.37 | 91 | 1016.2 |
| 20260902014012 | 70 | 266 | 0.0 | 1.0 | 0.00 | 0.41 | 0.37 | 91 | 1016.1 |
| 20260902013512 | 70 | 266 | 0.0 | 1.0 | 0.00 | 0.41 | 0.37 | 91 | 1016.1 |
| 20260902013012 | 70 | 266 | 0.0 | 1.0 | 0.00 | 0.41 | 0.37 | 91 | 1016.2 |
| 20260902012512 | 70 | 266 | 1.0 | 1.0 | 0.00 | 0.41 | 0.37 | 91 | 1016.4 |
| 20260902012012 | 70 | 240 | 0.0 | 2.0 | 0.00 | 0.41 | 0.37 | 90 | 1016.4 |
| 20260902011512 | 70 | 240 | 1.0 | 2.0 | 0.00 | 0.41 | 0.37 | 90 | 1016.3 |
| 20260902011012 | 70 | 241 | 1.0 | 1.0 | 0.00 | 0.41 | 0.37 | 90 | 1016.4 |
| 20260902010513 | 70 | 271 | 0.0 | 1.0 | 0.00 | 0.41 | 0.37 | 91 | 1016.3 |
| 20260902010012 | 70 | 271 | 0.0 | 1.0 | 0.00 | 0.41 | 0.37 | 91 | 1016.3 |
| 20260902005512 | 70 | 271 | 0.0 | 3.0 | 0.00 | 0.42 | 0.37 | 90 | 1016.2 |
| 20260902005012 | 70 | 279 | 2.0 | 3.0 | 0.00 | 0.42 | 0.37 | 91 | 1016.1 |
| 20260902004513 | 70 | 233 | 2.0 | 3.0 | 0.00 | 0.42 | 0.37 | 90 | 1016.0 |
| 20260902004013 | 70 | 228 | 2.0 | 3.0 | 0.00 | 0.42 | 0.37 | 90 | 1015.8 |
| 20260902003512 | 70 | 228 | 1.0 | 2.0 | 0.00 | 0.42 | 0.37 | 90 | 1015.6 |
| 20260902003012 | 70 | 240 | 0.0 | 1.0 | 0.00 | 0.42 | 0.37 | 90 | 1015.4 |
| 20260902002512 | 71 | 240 | 0.0 | 0.0 | 0.00 | 0.42 | 0.37 | 90 | 1015.2 |
| 20260902002012 | 71 | 240 | 0.0 | 0.0 | 0.00 | 0.42 | 0.37 | 90 | 1015.1 |
| 20260902001512 | 71 | 240 | 0.0 | 0.0 | 0.00 | 0.42 | 0.37 | 90 | 1014.9 |
| 20260902001013 | 71 | 240 | 0.0 | 0.0 | 0.00 | 0.42 | 0.37 | 89 | 1014.8 |
| 20260902000511 | 71 | 240 | 0.0 | 2.0 | 0.00 | 0.42 | 0.37 | 89 | 1014.7 |
| 20260902000012 | 71 | 240 | 1.0 | 2.0 | 0.00 | 0.42 | 0.37 | 89 | 1014.8 |
| 20260901235512 | 72 | 246 | 2.0 | 2.0 | 0.00 | 0.42 | 0.37 | 88 | 1015.0 |
| 20260901235013 | 72 | 281 | 0.0 | 2.0 | 0.00 | 0.42 | 0.37 | 88 | 1014.8 |
| 20260901234512 | 72 | 281 | 0.0 | 2.0 | 0.00 | 0.42 | 0.37 | 88 | 1014.9 |
| 20260901234012 | 72 | 266 | 1.0 | 2.0 | 0.00 | 0.42 | 0.37 | 87 | 1015.3 |
| 20260901233513 | 72 | 241 | 0.0 | 3.0 | 0.00 | 0.42 | 0.37 | 86 | 1015.1 |
| 20260901233012 | 72 | 229 | 1.0 | 3.0 | 0.00 | 0.42 | 0.37 | 84 | 1015.2 |
| 20260901232512 | 73 | 240 | 0.0 | 0.0 | 0.00 | 0.42 | 0.37 | 85 | 1015.0 |
| 20260901232023 | 73 | 240 | 0.0 | 1.0 | 0.00 | 0.42 | 0.37 | 83 | 1014.8 |
| 20260901231512 | 73 | 240 | 0.0 | 1.0 | 0.00 | 0.42 | 0.37 | 83 | 1015.0 |
| 20260901231012 | 73 | 240 | 0.0 | 2.0 | 0.00 | 0.42 | 0.37 | 82 | 1015.1 |
| 20260901230512 | 74 | 240 | 0.0 | 3.0 | 0.00 | 0.42 | 0.37 | 82 | 1015.2 |
| 20260901230012 | 74 | 254 | 1.0 | 4.0 | 0.00 | 0.42 | 0.37 | 82 | 1015.5 |
| 20260901225513 | 74 | 224 | 3.0 | 4.0 | 0.00 | 0.52 | 0.37 | 83 | 1015.4 |
| 20260901225013 | 75 | 261 | 1.0 | 4.0 | 0.00 | 0.52 | 0.37 | 84 | 1015.6 |
| 20260901224512 | 76 | 233 | 1.0 | 4.0 | 0.00 | 0.52 | 0.37 | 86 | 1015.6 |
| 20260901224012 | 76 | 236 | 2.0 | 2.0 | 0.00 | 0.52 | 0.37 | 86 | 1015.5 |
| 20260901223512 | 76 | 271 | 0.0 | 1.0 | 0.00 | 0.52 | 0.37 | 84 | 1015.5 |
| 20260901223012 | 76 | 271 | 0.0 | 2.0 | 0.00 | 0.52 | 0.37 | 84 | 1015.6 |
| 20260901222513 | 77 | 271 | 1.0 | 2.0 | 0.00 | 0.52 | 0.37 | 84 | 1015.8 |
| 20260901222012 | 77 | 252 | 1.0 | 2.0 | 0.00 | 0.52 | 0.37 | 82 | 1015.5 |
| 20260901221513 | 77 | 300 | 1.0 | 2.0 | 0.00 | 0.52 | 0.37 | 82 | 1015.2 |
| 20260901221013 | 77 | 300 | 0.0 | 3.0 | 0.00 | 0.52 | 0.37 | 82 | 1014.9 |
| 20260901220512 | 77 | 310 | 0.0 | 3.0 | 0.00 | 0.52 | 0.37 | 81 | 1015.0 |
| 20260901220012 | 77 | 3 | 1.0 | 4.0 | 0.00 | 0.52 | 0.37 | 82 | 1014.7 |
| 20260901215513 | 78 | 302 | 2.0 | 4.0 | 0.00 | 0.52 | 0.37 | 82 | 1014.8 |
| 20260901215012 | 78 | 264 | 0.0 | 2.0 | 0.00 | 0.52 | 0.37 | 81 | 1014.6 |
| 20260901214513 | 78 | 307 | 0.0 | 4.0 | 0.00 | 0.52 | 0.37 | 81 | 1014.6 |
| 20260901214012 | 78 | 307 | 2.0 | 4.0 | 0.00 | 0.52 | 0.37 | 80 | 1014.6 |
| 20260901213512 | 78 | 274 | 1.0 | 6.0 | 0.00 | 0.52 | 0.37 | 80 | 1014.8 |
| 20260901213013 | 79 | 316 | 1.0 | 6.0 | 0.00 | 0.52 | 0.37 | 80 | 1014.7 |
| 20260901212512 | 79 | 257 | 1.0 | 2.0 | 0.00 | 0.52 | 0.37 | 80 | 1014.7 |
| 20260901212013 | 79 | 1 | 0.0 | 2.0 | 0.00 | 0.52 | 0.37 | 81 | 1014.7 |
| 20260901211513 | 79 | 330 | 0.0 | 3.0 | 0.00 | 0.52 | 0.37 | 82 | 1014.7 |
| 20260901211013 | 79 | 43 | 0.0 | 3.0 | 0.00 | 0.52 | 0.37 | 82 | 1014.7 |
| 20260901210513 | 79 | 55 | 0.0 | 4.0 | 0.00 | 0.52 | 0.37 | 82 | 1014.6 |
| 20260901210013 | 79 | 297 | 1.0 | 4.0 | 0.00 | 0.52 | 0.37 | 82 | 1014.7 |
| 20260901205513 | 79 | 20 | 0.0 | 3.0 | 0.00 | 0.52 | 0.37 | 82 | 1014.5 |
| 20260901205013 | 79 | 316 | 0.0 | 4.0 | 0.00 | 0.52 | 0.37 | 81 | 1014.4 |
| 20260901204513 | 79 | 302 | 1.0 | 5.0 | 0.00 | 0.52 | 0.37 | 80 | 1014.4 |
| 20260901204013 | 80 | 256 | 3.0 | 6.0 | 0.00 | 0.52 | 0.37 | 77 | 1014.5 |
| 20260901203515 | 80 | 271 | 1.0 | 6.0 | 0.00 | 0.52 | 0.37 | 78 | 1014.5 |
| 20260901203024 | 81 | 8 | 1.0 | 5.0 | 0.00 | 0.52 | 0.37 | 78 | 1014.4 |
| 20260901202513 | 81 | 269 | 2.0 | 6.0 | 0.00 | 0.52 | 0.37 | 78 | 1014.4 |
| 20260901202025 | 81 | 233 | 1.0 | 6.0 | 0.00 | 0.52 | 0.37 | 79 | 1014.5 |
| 20260901201513 | 81 | 354 | 3.0 | 5.0 | 0.00 | 0.52 | 0.37 | 77 | 1014.6 |
| 20260901201024 | 81 | 263 | 3.0 | 5.0 | 0.00 | 0.52 | 0.37 | 77 | 1014.6 |
| 20260901200513 | 81 | 257 | 2.0 | 5.0 | 0.00 | 0.52 | 0.37 | 78 | 1014.5 |
| 20260901200013 | 80 | 231 | 1.0 | 8.0 | 0.00 | 0.52 | 0.37 | 79 | 1014.6 |
| 20260901195513 | 81 | 221 | 4.0 | 8.0 | 0.00 | 0.53 | 0.37 | 79 | 1014.6 |
| 20260901195014 | 81 | 214 | 3.0 | 8.0 | 0.00 | 0.53 | 0.37 | 78 | 1014.6 |
| 20260901194514 | 81 | 272 | 3.0 | 8.0 | 0.00 | 0.53 | 0.37 | 78 | 1014.7 |
| 20260901194016 | 80 | 306 | 4.0 | 8.0 | 0.00 | 0.53 | 0.37 | 77 | 1014.7 |
| 20260901193514 | 80 | 245 | 4.0 | 8.0 | 0.00 | 0.53 | 0.37 | 78 | 1014.8 |
| 20260901193025 | 80 | 250 | 2.0 | 7.0 | 0.00 | 0.53 | 0.37 | 81 | 1014.7 |
| 20260901192514 | 80 | 244 | 4.0 | 7.0 | 0.00 | 0.53 | 0.37 | 81 | 1014.8 |
| 20260901192014 | 80 | 216 | 4.0 | 12.0 | 0.00 | 0.53 | 0.37 | 80 | 1014.9 |
| 20260901191515 | 80 | 235 | 6.0 | 12.0 | 0.00 | 0.53 | 0.37 | 80 | 1014.9 |
| 20260901191014 | 80 | 233 | 5.0 | 8.0 | 0.00 | 0.53 | 0.37 | 80 | 1014.8 |
| 20260901190515 | 79 | 245 | 4.0 | 9.0 | 0.00 | 0.53 | 0.37 | 80 | 1014.8 |
| 20260901190015 | 79 | 230 | 4.0 | 9.0 | 0.00 | 0.53 | 0.37 | 80 | 1014.8 |
| 20260901185526 | 79 | 216 | 4.0 | 11.0 | 0.00 | 0.63 | 0.37 | 82 | 1014.8 |
| 20260901185015 | 79 | 229 | 7.0 | 11.0 | 0.00 | 0.63 | 0.37 | 80 | 1014.9 |
| 20260901184515 | 79 | 224 | 7.0 | 11.0 | 0.00 | 0.63 | 0.37 | 80 | 1014.8 |
| 20260901184015 | 79 | 238 | 3.0 | 11.0 | 0.00 | 0.63 | 0.37 | 81 | 1014.8 |
| 20260901183515 | 79 | 260 | 6.0 | 10.0 | 0.00 | 0.63 | 0.37 | 83 | 1014.8 |
| 20260901183015 | 78 | 219 | 4.0 | 13.0 | 0.00 | 0.63 | 0.37 | 82 | 1014.9 |
| 20260901182514 | 78 | 224 | 7.0 | 13.0 | 0.00 | 0.63 | 0.37 | 83 | 1014.9 |
| 20260901182014 | 78 | 224 | 6.0 | 12.0 | 0.00 | 0.63 | 0.37 | 83 | 1014.9 |
| 20260901181515 | 78 | 275 | 6.0 | 11.0 | 0.00 | 0.63 | 0.37 | 83 | 1014.9 |
| 20260901181014 | 78 | 250 | 2.0 | 9.0 | 0.00 | 0.63 | 0.37 | 85 | 1015.0 |
| 20260901180525 | 77 | 154 | 2.0 | 9.0 | 0.00 | 0.63 | 0.37 | 84 | 1015.0 |
| 20260901180016 | 77 | 258 | 5.0 | 9.0 | 0.00 | 0.63 | 0.37 | 85 | 1015.0 |
| 20260901175515 | 77 | 224 | 6.0 | 9.0 | 0.00 | 0.67 | 0.37 | 84 | 1015.1 |
| 20260901175015 | 77 | 233 | 4.0 | 8.0 | 0.00 | 0.67 | 0.37 | 85 | 1015.0 |
| 20260901174515 | 77 | 245 | 5.0 | 8.0 | 0.00 | 0.67 | 0.37 | 85 | 1014.9 |
| 20260901174017 | 77 | 271 | 4.0 | 7.0 | 0.00 | 0.67 | 0.37 | 86 | 1014.7 |
| 20260901173514 | 77 | 219 | 1.0 | 6.0 | 0.00 | 0.67 | 0.37 | 86 | 1014.9 |
| 20260901173016 | 77 | 249 | 3.0 | 6.0 | 0.00 | 0.67 | 0.37 | 85 | 1015.0 |
| 20260901172514 | 77 | 300 | 3.0 | 8.0 | 0.00 | 0.67 | 0.37 | 84 | 1015.0 |
| 20260901172015 | 77 | 276 | 5.0 | 8.0 | 0.00 | 0.67 | 0.37 | 83 | 1014.9 |
| 20260901171516 | 77 | 286 | 3.0 | 6.0 | 0.00 | 0.67 | 0.37 | 84 | 1015.0 |
| 20260901171015 | 77 | 240 | 2.0 | 7.0 | 0.00 | 0.67 | 0.37 | 84 | 1014.9 |
| 20260901170514 | 77 | 250 | 2.0 | 9.0 | 0.00 | 0.67 | 0.37 | 85 | 1015.0 |
| 20260901170016 | 77 | 240 | 4.0 | 9.0 | 0.00 | 0.67 | 0.37 | 84 | 1015.2 |
| 20260901165526 | 77 | 213 | 2.0 | 11.0 | 0.00 | 0.70 | 0.37 | 84 | 1015.3 |
| 20260901165015 | 77 | 235 | 6.0 | 11.0 | 0.00 | 0.70 | 0.37 | 84 | 1015.2 |
| 20260901164515 | 76 | 311 | 3.0 | 10.0 | 0.00 | 0.70 | 0.37 | 85 | 1015.2 |
| 20260901164026 | 76 | 225 | 5.0 | 10.0 | 0.00 | 0.70 | 0.37 | 85 | 1015.4 |
| 20260901163515 | 76 | 287 | 1.0 | 7.0 | 0.00 | 0.70 | 0.37 | 85 | 1015.4 |
| 20260901163015 | 76 | 226 | 2.0 | 6.0 | 0.00 | 0.70 | 0.37 | 86 | 1015.5 |
| 20260901162515 | 76 | 237 | 3.0 | 6.0 | 0.00 | 0.70 | 0.37 | 86 | 1015.5 |
| 20260901162015 | 75 | 232 | 2.0 | 5.0 | 0.00 | 0.70 | 0.37 | 88 | 1015.6 |
| 20260901161515 | 75 | 248 | 2.0 | 8.0 | 0.00 | 0.70 | 0.37 | 88 | 1015.7 |
| 20260901161017 | 74 | 218 | 4.0 | 8.0 | 0.00 | 0.70 | 0.37 | 89 | 1015.8 |
| 20260901160515 | 74 | 226 | 3.0 | 5.0 | 0.00 | 0.70 | 0.37 | 89 | 1015.7 |
| 20260901160015 | 73 | 226 | 3.0 | 7.0 | 0.00 | 0.70 | 0.37 | 90 | 1015.8 |
| 20260901155515 | 73 | 245 | 4.0 | 7.0 | 0.00 | 0.70 | 0.37 | 89 | 1015.9 |
| 20260901155026 | 73 | 240 | 3.0 | 7.0 | 0.00 | 0.70 | 0.37 | 90 | 1015.8 |
| 20260901154515 | 73 | 239 | 2.0 | 5.0 | 0.00 | 0.70 | 0.37 | 90 | 1015.9 |
| 20260901154015 | 73 | 217 | 2.0 | 6.0 | 0.00 | 0.70 | 0.37 | 90 | 1015.9 |
| 20260901153515 | 73 | 240 | 4.0 | 6.0 | 0.00 | 0.70 | 0.37 | 90 | 1016.0 |
| 20260901153015 | 73 | 227 | 4.0 | 6.0 | 0.00 | 0.70 | 0.37 | 89 | 1015.9 |
| 20260901152515 | 72 | 238 | 3.0 | 6.0 | 0.00 | 0.70 | 0.37 | 89 | 1015.9 |
| 20260901152017 | 72 | 236 | 1.0 | 6.0 | 0.00 | 0.70 | 0.37 | 89 | 1015.9 |
| 20260901151515 | 72 | 248 | 3.0 | 6.0 | 0.00 | 0.70 | 0.37 | 89 | 1015.9 |
| 20260901151016 | 72 | 259 | 3.0 | 6.0 | 0.00 | 0.70 | 0.37 | 89 | 1015.9 |
| 20260901150515 | 72 | 169 | 2.0 | 8.0 | 0.00 | 0.70 | 0.37 | 88 | 1015.9 |
| 20260901150016 | 71 | 245 | 4.0 | 8.0 | 0.00 | 0.70 | 0.37 | 88 | 1016.0 |
| 20260901145527 | 71 | 242 | 4.0 | 7.0 | 0.00 | 0.70 | 0.37 | 88 | 1016.0 |
| 20260901145015 | 71 | 193 | 1.0 | 3.0 | 0.00 | 0.70 | 0.37 | 88 | 1016.0 |
| 20260901144516 | 71 | 274 | 1.0 | 1.0 | 0.00 | 0.70 | 0.37 | 88 | 1016.1 |
| 20260901144017 | 71 | 236 | 0.0 | 1.0 | 0.05 | 0.70 | 0.37 | 88 | 1016.1 |